Time,TemperatureF,DewpointF,PressureIn,WindDirection,WindDirectionDegrees,WindSpeedMPH,WindSpeedGustMPH,Humidity,HourlyPrecipIn,Conditions,Clouds,dailyrainin,SoftwareType,DateUTC
2013-04-20 00:13:00,33.3,30.0,29.70,WSW,254,6.0,11.0,89,0.00,,,0.00,weatherlink.com 1.10,2013-04-20 04:13:00,
2013-04-20 00:28:00,33.4,30.0,29.71,West,271,3.0,13.0,87,0.00,,,0.00,weatherlink.com 1.10,2013-04-20 04:28:00,
2013-04-20 00:43:00,33.6,30.0,29.71,West,276,7.0,12.0,86,0.00,,,0.00,weatherlink.com 1.10,2013-04-20 04:43:00,
2013-04-20 00:58:00,33.7,29.0,29.71,West,259,14.0,17.0,84,0.00,,,0.00,weatherlink.com 1.10,2013-04-20 04:58:00,
2013-04-20 01:13:00,33.6,29.0,29.72,SW,231,6.0,14.0,84,0.00,,,0.00,weatherlink.com 1.10,2013-04-20 05:13:00,
2013-04-20 01:29:00,33.5,29.0,29.73,WSW,238,12.0,14.0,82,0.00,,,0.00,weatherlink.com 1.10,2013-04-20 05:29:00,
2013-04-20 01:44:00,33.5,29.0,29.74,West,269,7.0,15.0,82,0.00,,,0.00,weatherlink.com 1.10,2013-04-20 05:44:00,
2013-04-20 01:59:00,33.5,29.0,29.74,West,273,5.0,15.0,82,0.00,,,0.00,weatherlink.com 1.10,2013-04-20 05:59:00,
2013-04-20 02:14:00,33.4,28.0,29.75,West,276,6.0,15.0,81,0.00,,,0.00,weatherlink.com 1.10,2013-04-20 06:14:00,
2013-04-20 02:29:00,33.2,28.0,29.75,West,266,3.0,19.0,81,0.00,,,0.00,weatherlink.com 1.10,2013-04-20 06:29:00,
2013-04-20 02:44:00,33.2,27.0,29.76,NW,319,18.0,18.0,78,0.00,,,0.00,weatherlink.com 1.10,2013-04-20 06:44:00,
2013-04-20 02:59:00,33.0,26.0,29.77,WNW,285,11.0,21.0,74,0.00,,,0.00,weatherlink.com 1.10,2013-04-20 06:59:00,
2013-04-20 03:14:00,32.1,24.0,29.78,WNW,300,8.0,17.0,73,0.00,,,0.00,weatherlink.com 1.10,2013-04-20 07:14:00,
2013-04-20 03:29:00,31.9,25.0,29.79,West,277,8.0,16.0,74,0.00,,,0.00,weatherlink.com 1.10,2013-04-20 07:29:00,
2013-04-20 03:44:00,31.6,25.0,29.80,WSW,255,6.0,20.0,75,0.00,,,0.00,weatherlink.com 1.10,2013-04-20 07:44:00,
2013-04-20 03:59:00,31.4,24.0,29.81,NW,309,15.0,24.0,74,0.00,,,0.00,weatherlink.com 1.10,2013-04-20 07:59:00,
2013-04-20 04:14:00,30.3,24.0,29.82,West,276,5.0,25.0,76,0.00,,,0.00,weatherlink.com 1.10,2013-04-20 08:14:00,
2013-04-20 04:29:00,30.0,23.0,29.84,WNW,295,10.0,22.0,75,0.00,,,0.00,weatherlink.com 1.10,2013-04-20 08:29:00,
2013-04-20 04:44:00,29.8,20.0,29.84,NW,316,12.0,23.0,68,0.00,,,0.00,weatherlink.com 1.10,2013-04-20 08:44:00,
2013-04-20 04:59:00,29.4,19.0,29.86,West,267,7.0,19.0,65,0.00,,,0.00,weatherlink.com 1.10,2013-04-20 08:59:00,
2013-04-20 05:14:00,29.3,18.0,29.86,NW,323,15.0,23.0,64,0.00,,,0.00,weatherlink.com 1.10,2013-04-20 09:14:00,
2013-04-20 05:29:00,29.1,19.0,29.88,WNW,285,10.0,21.0,65,0.00,,,0.00,weatherlink.com 1.10,2013-04-20 09:29:00,
2013-04-20 05:44:00,29.0,19.0,29.89,NW,308,15.0,22.0,65,0.00,,,0.00,weatherlink.com 1.10,2013-04-20 09:44:00,
2013-04-20 06:00:00,28.8,19.0,29.90,NW,314,7.0,16.0,67,0.00,,,0.00,weatherlink.com 1.10,2013-04-20 10:00:00,
2013-04-20 06:15:00,28.9,19.0,29.91,WNW,302,8.0,21.0,67,0.00,,,0.00,weatherlink.com 1.10,2013-04-20 10:15:00,
2013-04-20 06:30:00,28.6,18.0,29.92,NNW,327,10.0,23.0,65,0.00,,,0.00,weatherlink.com 1.10,2013-04-20 10:30:00,
2013-04-20 06:45:00,28.3,18.0,29.93,WNW,293,9.0,18.0,66,0.00,,,0.00,weatherlink.com 1.10,2013-04-20 10:45:00,
2013-04-20 07:00:00,28.0,18.0,29.95,West,271,5.0,17.0,67,0.00,,,0.00,weatherlink.com 1.10,2013-04-20 11:00:00,
2013-04-20 07:15:00,28.2,18.0,29.96,WNW,297,12.0,18.0,67,0.00,,,0.00,weatherlink.com 1.10,2013-04-20 11:15:00,
2013-04-20 07:30:00,28.6,19.0,29.97,WNW,293,5.0,16.0,68,0.00,,,0.00,weatherlink.com 1.10,2013-04-20 11:30:00,
2013-04-20 07:45:00,28.6,18.0,29.98,WNW,300,8.0,16.0,66,0.00,,,0.00,weatherlink.com 1.10,2013-04-20 11:45:00,
2013-04-20 08:00:00,28.3,19.0,30.00,WNW,283,12.0,16.0,67,0.00,,,0.00,weatherlink.com 1.10,2013-04-20 12:00:00,
2013-04-20 08:15:00,28.3,19.0,30.01,NW,324,4.0,18.0,69,0.00,,,0.00,weatherlink.com 1.10,2013-04-20 12:15:00,
2013-04-20 08:30:00,28.7,18.0,30.02,WNW,302,12.0,20.0,65,0.00,,,0.00,weatherlink.com 1.10,2013-04-20 12:30:00,
2013-04-20 08:45:00,29.3,19.0,30.03,WNW,293,11.0,17.0,65,0.00,,,0.00,weatherlink.com 1.10,2013-04-20 12:45:00,
2013-04-20 09:00:00,29.2,19.0,30.04,WNW,285,14.0,20.0,65,0.00,,,0.00,weatherlink.com 1.10,2013-04-20 13:00:00,
2013-04-20 09:15:00,29.8,19.0,30.05,WNW,297,6.0,19.0,65,0.00,,,0.00,weatherlink.com 1.10,2013-04-20 13:15:00,
2013-04-20 09:30:00,29.4,18.0,30.06,NW,312,9.0,17.0,63,0.00,,,0.00,weatherlink.com 1.10,2013-04-20 13:30:00,
2013-04-20 09:45:00,29.8,18.0,30.07,WNW,301,10.0,19.0,63,0.00,,,0.00,weatherlink.com 1.10,2013-04-20 13:45:00,
2013-04-20 10:00:00,30.2,19.0,30.08,North,349,6.0,18.0,63,0.00,,,0.00,weatherlink.com 1.10,2013-04-20 14:00:00,
2013-04-20 10:15:00,31.2,20.0,30.09,WNW,295,10.0,17.0,63,0.00,,,0.00,weatherlink.com 1.10,2013-04-20 14:15:00,
2013-04-20 10:30:00,31.3,18.0,30.09,WNW,285,14.0,19.0,59,0.00,,,0.00,weatherlink.com 1.10,2013-04-20 14:30:00,
2013-04-20 10:45:00,31.9,19.0,30.10,NW,322,13.0,17.0,60,0.00,,,0.00,weatherlink.com 1.10,2013-04-20 14:45:00,
2013-04-20 11:00:00,31.5,20.0,30.11,West,279,5.0,16.0,63,0.00,,,0.00,weatherlink.com 1.10,2013-04-20 15:00:00,
2013-04-20 11:16:00,31.9,21.0,30.12,NW,307,3.0,18.0,64,0.00,,,0.00,weatherlink.com 1.10,2013-04-20 15:16:00,
2013-04-20 11:31:00,32.0,20.0,30.13,WNW,291,15.0,19.0,61,0.00,,,0.00,weatherlink.com 1.10,2013-04-20 15:31:00,
2013-04-20 11:46:00,32.7,22.0,30.14,NW,307,8.0,23.0,64,0.00,,,0.00,weatherlink.com 1.10,2013-04-20 15:46:00,
2013-04-20 12:01:00,33.3,20.0,30.15,WNW,295,7.0,17.0,59,0.00,,,0.00,weatherlink.com 1.10,2013-04-20 16:01:00,
2013-04-20 12:16:00,33.7,22.0,30.15,WNW,303,6.0,18.0,62,0.00,,,0.00,weatherlink.com 1.10,2013-04-20 16:16:00,
2013-04-20 12:31:00,33.1,20.0,30.16,WNW,284,5.0,16.0,60,0.00,,,0.00,weatherlink.com 1.10,2013-04-20 16:31:00,
2013-04-20 12:46:00,34.1,22.0,30.16,West,271,9.0,14.0,61,0.00,,,0.00,weatherlink.com 1.10,2013-04-20 16:46:00,
2013-04-20 13:01:00,34.3,22.0,30.17,West,266,9.0,15.0,62,0.00,,,0.00,weatherlink.com 1.10,2013-04-20 17:01:00,
2013-04-20 13:16:00,34.0,20.0,30.18,WNW,289,4.0,21.0,58,0.00,,,0.00,weatherlink.com 1.10,2013-04-20 17:16:00,
2013-04-20 13:31:00,34.2,22.0,30.18,WNW,301,10.0,17.0,61,0.00,,,0.00,weatherlink.com 1.10,2013-04-20 17:31:00,
2013-04-20 13:46:00,34.6,21.0,30.19,West,270,6.0,16.0,59,0.00,,,0.00,weatherlink.com 1.10,2013-04-20 17:46:00,
2013-04-20 14:01:00,35.1,22.0,30.20,WNW,300,4.0,15.0,60,0.00,,,0.00,weatherlink.com 1.10,2013-04-20 18:01:00,
2013-04-20 14:16:00,35.1,23.0,30.20,West,263,7.0,15.0,61,0.00,,,0.00,weatherlink.com 1.10,2013-04-20 18:16:00,
2013-04-20 14:31:00,34.9,23.0,30.21,NW,308,11.0,17.0,61,0.00,,,0.00,weatherlink.com 1.10,2013-04-20 18:31:00,
2013-04-20 14:46:00,35.7,22.0,30.22,NW,308,5.0,18.0,58,0.00,,,0.00,weatherlink.com 1.10,2013-04-20 18:46:00,
2013-04-20 15:01:00,34.9,23.0,30.23,West,280,6.0,20.0,62,0.00,,,0.00,weatherlink.com 1.10,2013-04-20 19:01:00,
2013-04-20 15:16:00,35.7,23.0,30.23,WSW,250,10.0,16.0,61,0.00,,,0.00,weatherlink.com 1.10,2013-04-20 19:16:00,
2013-04-20 15:31:00,36.8,24.0,30.24,West,267,10.0,14.0,59,0.00,,,0.00,weatherlink.com 1.10,2013-04-20 19:31:00,
2013-04-20 15:46:00,35.5,23.0,30.24,WNW,285,10.0,16.0,60,0.00,,,0.00,weatherlink.com 1.10,2013-04-20 19:46:00,
2013-04-20 16:01:00,35.6,24.0,30.25,WNW,296,10.0,13.0,62,0.00,,,0.00,weatherlink.com 1.10,2013-04-20 20:01:00,
2013-04-20 16:16:00,36.3,23.0,30.25,WSW,248,9.0,15.0,59,0.00,,,0.00,weatherlink.com 1.10,2013-04-20 20:16:00,
2013-04-20 16:31:00,35.4,24.0,30.26,NW,307,5.0,17.0,64,0.00,,,0.00,weatherlink.com 1.10,2013-04-20 20:31:00,
2013-04-20 16:46:00,35.9,23.0,30.27,WNW,293,7.0,13.0,61,0.00,,,0.00,weatherlink.com 1.10,2013-04-20 20:46:00,
2013-04-20 17:01:00,36.9,24.0,30.27,West,271,9.0,12.0,61,0.00,,,0.00,weatherlink.com 1.10,2013-04-20 21:01:00,
2013-04-20 17:16:00,36.9,24.0,30.28,WNW,286,5.0,16.0,59,0.00,,,0.00,weatherlink.com 1.10,2013-04-20 21:16:00,
2013-04-20 17:31:00,36.4,24.0,30.29,WNW,284,6.0,19.0,61,0.00,,,0.00,weatherlink.com 1.10,2013-04-20 21:31:00,
2013-04-20 17:46:00,35.9,24.0,30.30,NW,309,7.0,14.0,63,0.00,,,0.00,weatherlink.com 1.10,2013-04-20 21:46:00,
2013-04-20 18:01:00,35.6,24.0,30.30,WNW,288,3.0,10.0,64,0.00,,,0.00,weatherlink.com 1.10,2013-04-20 22:01:00,
2013-04-20 18:16:00,35.9,24.0,30.31,NW,312,2.0,10.0,63,0.00,,,0.00,weatherlink.com 1.10,2013-04-20 22:16:00,
2013-04-20 18:31:00,35.7,25.0,30.31,NW,315,5.0,12.0,64,0.00,,,0.00,weatherlink.com 1.10,2013-04-20 22:31:00,
2013-04-20 18:47:00,36.0,23.0,30.32,WNW,285,3.0,14.0,60,0.00,,,0.00,weatherlink.com 1.10,2013-04-20 22:47:00,
2013-04-20 19:02:00,36.0,23.0,30.32,NW,307,7.0,11.0,60,0.00,,,0.00,weatherlink.com 1.10,2013-04-20 23:02:00,
2013-04-20 19:17:00,36.1,23.0,30.33,WNW,302,8.0,13.0,59,0.00,,,0.00,weatherlink.com 1.10,2013-04-20 23:17:00,
2013-04-20 19:32:00,36.5,24.0,30.33,NW,307,4.0,9.0,60,0.00,,,0.00,weatherlink.com 1.10,2013-04-20 23:32:00,
2013-04-20 19:47:00,35.5,24.0,30.34,ENE,63,3.0,12.0,62,0.00,,,0.00,weatherlink.com 1.10,2013-04-20 23:47:00,
2013-04-20 20:02:00,34.8,23.0,30.35,WNW,297,6.0,10.0,63,0.00,,,0.00,weatherlink.com 1.10,2013-04-21 00:02:00,
2013-04-20 20:17:00,33.9,24.0,30.36,NW,319,2.0,6.0,66,0.00,,,0.00,weatherlink.com 1.10,2013-04-21 00:17:00,
2013-04-20 20:32:00,33.3,23.0,30.37,NNW,335,2.0,3.0,67,0.00,,,0.00,weatherlink.com 1.10,2013-04-21 00:32:00,
2013-04-20 20:47:00,32.8,24.0,30.37,NW,308,1.0,3.0,69,0.00,,,0.00,weatherlink.com 1.10,2013-04-21 00:47:00,
2013-04-20 21:02:00,32.1,24.0,30.38,NW,307,0.0,1.0,71,0.00,,,0.00,weatherlink.com 1.10,2013-04-21 01:02:00,
2013-04-20 21:17:00,30.8,23.0,30.39,NW,307,0.0,0.0,74,0.00,,,0.00,weatherlink.com 1.10,2013-04-21 01:17:00,
2013-04-20 21:32:00,29.5,23.0,30.39,NW,304,0.0,0.0,76,0.00,,,0.00,weatherlink.com 1.10,2013-04-21 01:32:00,
2013-04-20 21:47:00,28.5,23.0,30.40,NW,307,0.0,0.0,79,0.00,,,0.00,weatherlink.com 1.10,2013-04-21 01:47:00,
2013-04-20 22:02:00,27.7,23.0,30.41,NW,304,0.0,0.0,81,0.00,,,0.00,weatherlink.com 1.10,2013-04-21 02:02:00,
2013-04-20 22:17:00,27.3,23.0,30.42,NW,305,0.0,0.0,83,0.00,,,0.00,weatherlink.com 1.10,2013-04-21 02:17:00,
2013-04-20 22:32:00,26.8,22.0,30.42,NW,305,0.0,0.0,83,0.00,,,0.00,weatherlink.com 1.10,2013-04-21 02:32:00,
2013-04-20 22:47:00,26.7,23.0,30.42,NW,304,0.0,1.0,87,0.00,,,0.00,weatherlink.com 1.10,2013-04-21 02:47:00,
2013-04-20 23:02:00,26.2,23.0,30.43,NW,305,0.0,0.0,88,0.00,,,0.00,weatherlink.com 1.10,2013-04-21 03:02:00,
2013-04-20 23:17:00,24.4,21.0,30.43,NW,305,0.0,0.0,87,0.00,,,0.00,weatherlink.com 1.10,2013-04-21 03:17:00,
2013-04-20 23:32:00,25.4,23.0,30.44,NW,305,0.0,0.0,89,0.00,,,0.00,weatherlink.com 1.10,2013-04-21 03:32:00,
2013-04-20 23:47:00,25.4,23.0,30.45,NW,305,0.0,0.0,90,0.00,,,0.00,weatherlink.com 1.10,2013-04-21 03:47:00,